DateTime,DeltaTime,Roll,TargetAngle,Position,Power
2022-06-03 10:11:38.381,0,27.6,28,22,16.08
2022-06-03 10:11:38.494,0.112994760274887,26.47,28,-4,-30.95
2022-06-03 10:11:38.609,0.228001177310944,26.41,28,-31,-90
2022-06-03 10:11:38.719,0.337998569011688,18.51,28,-30,-90
2022-06-03 10:11:38.834,0.452994927763939,5.34,-22,-30,37.27
2022-06-03 10:11:38.949,0.568001344799995,-5.46,-22,-30,-30.27
2022-06-03 10:11:39.064,0.682997703552246,-12.06,-22,-29,-31
2022-06-03 10:11:39.179,0.798004120588303,-12.72,-22,-29,-26.73
2022-06-03 10:11:39.293,0.911994650959969,-11.84,-22,-21,-28.68
2022-06-03 10:11:39.408,1.02700106799603,-13.58,-22,3,10.69
2022-06-03 10:11:39.522,1.1410016566515,-12.95,-22,12,90
2022-06-03 10:11:39.637,1.25599801540375,-11.53,-22,28,90
2022-06-03 10:11:39.753,1.37200020253658,-9.14,-22,41,90
2022-06-03 10:11:39.867,1.48600079119205,-3.16,14.44,40,67.33
2022-06-03 10:11:39.982,1.60099714994431,4.64,28,41,25.21
2022-06-03 10:11:40.096,1.71499773859978,10.29,28,41,50.4
2022-06-03 10:11:40.211,1.83000415563583,12.33,28,41,47.99
2022-06-03 10:11:40.325,1.9439946860075,10.88,28,39,47.99
2022-06-03 10:11:40.441,2.05999687314034,12.32,28,21,37.99
2022-06-03 10:11:40.554,2.17300169169903,12.18,28,13,-48.41
2022-06-03 10:11:40.669,2.28799805045128,10.77,28,5,-65.85
2022-06-03 10:11:40.784,2.40300446748734,11.49,28,-12,-90
2022-06-03 10:11:40.899,2.51800082623959,9.88,28,-18,-90
2022-06-03 10:11:41.013,2.63200141489506,8.32,24,-28,-90
2022-06-03 10:11:41.128,2.74699777364731,4.12,-3.15,-29,-69.24
2022-06-03 10:11:41.243,2.86200419068336,-1.02,-22,-29,-2.44
2022-06-03 10:11:41.353,2.97200158238411,-4.15,-22,-29,-26.48
2022-06-03 10:11:41.468,3.08699794113636,-5.36,-22,-29,-27.12
2022-06-03 10:11:41.582,3.20099852979183,-4.68,-14.39,-25,-65.86
2022-06-03 10:11:41.697,3.31599488854408,-5.85,-22,-16,4.14
2022-06-03 10:11:41.813,3.43199707567692,-5.97,-22,-12,33.67
2022-06-03 10:11:41.926,3.54500189423561,-5.57,-18.88,-7,26.84
2022-06-03 10:11:42.042,3.66100408136845,-6.34,-22,5,66.92
2022-06-03 10:11:42.156,3.77499461174011,-5.48,-16.54,8,88.11
2022-06-03 10:11:42.271,3.89000102877617,-5.52,-20.56,17,90
2022-06-03 10:11:42.386,4.00499738752842,-5.23,-18.08,22,90
2022-06-03 10:11:42.501,4.12000380456448,-4.15,-10.67,27,90
2022-06-03 10:11:42.615,4.23400439321995,-3.76,-12.17,33,90
2022-06-03 10:11:42.729,4.34799492359161,-2.39,-2.84,35,90
2022-06-03 10:11:42.845,4.46399711072445,-1.09,1.6,38,90
2022-06-03 10:11:42.959,4.57799769937992,-0.3,2.37,39,90
2022-06-03 10:11:43.074,4.69300411641598,0.78,7.61,40,90
2022-06-03 10:11:43.189,4.80800047516823,1.44,8.21,38,90
2022-06-03 10:11:43.303,4.9220010638237,2.26,11.91,35,88.82
2022-06-03 10:11:43.418,5.03699742257595,2.91,13.6,33,72.84
2022-06-03 10:11:43.532,5.15099801123142,3.18,12.98,29,72.08
2022-06-03 10:11:43.643,5.26200123131275,3.74,16.25,25,37.57
2022-06-03 10:11:43.757,5.37600181996822,4.01,16.05,21,29.24
2022-06-03 10:11:43.872,5.49099817872047,3.83,13.39,15,28.33
2022-06-03 10:11:43.987,5.60600459575653,3.53,11.76,11,8.93
2022-06-03 10:11:44.101,5.7199951261282,3.24,10.75,5,0
2022-06-03 10:11:44.216,5.83500154316425,3.01,10.08,1,-22.75
2022-06-03 10:11:44.331,5.9499979019165,2.72,8.84,-7,-30.03
2022-06-03 10:11:44.446,6.06500431895256,2.47,8.06,-9,-63.24
2022-06-03 10:11:44.561,6.18000067770481,1.82,3.88,-13,-44.7
2022-06-03 10:11:44.675,6.29400126636028,1.17,1.48,-16,-56.72
2022-06-03 10:11:44.789,6.40800185501575,0.49,-1.13,-16,-55.38
2022-06-03 10:11:44.904,6.52299821376801,-0.18,-3.57,-19,-42.69
2022-06-03 10:11:45.019,6.63800463080406,-0.85,-6.06,-19,-49.6
2022-06-03 10:11:45.134,6.75300098955631,-1.47,-8.14,-19,-37.36
2022-06-03 10:11:45.249,6.86799734830856,-1.76,-7.83,-19,-42.64
2022-06-03 10:11:45.364,6.98300376534462,-2.36,-11.35,-17,-25.67
2022-06-03 10:11:45.478,7.09700435400009,-2.49,-9.76,-15,-28.92
2022-06-03 10:11:45.593,7.21200071275234,-2.65,-10.54,-13,-16.2
2022-06-03 10:11:45.707,7.32600130140781,-2.74,-10.51,-11,-10.41
2022-06-03 10:11:45.818,7.43700452148914,-2.71,-9.92,-8,-6.15
2022-06-03 10:11:45.932,7.55099505186081,-2.85,-11.14,-6,13.03
2022-06-03 10:11:46.047,7.66600146889687,-2.76,-9.85,-4,11.33
2022-06-03 10:11:46.162,7.78099782764912,-2.87,-11.05,0,26.74
2022-06-03 10:11:46.276,7.89499841630459,-2.78,-9.91,3,37.5
2022-06-03 10:11:46.392,8.01100060343742,-2.52,-8.23,5,41.24
2022-06-03 10:11:46.506,8.1250011920929,-2.27,-7.26,9,45.7
2022-06-03 10:11:46.621,8.23999755084515,-2.14,-7.39,9,65.93
2022-06-03 10:11:46.735,8.35399813950062,-2.78,-13.06,11,88.89
2022-06-03 10:11:46.850,8.46900455653667,-1.99,-3.89,12,45.59
2022-06-03 10:11:46.965,8.58400091528893,-1.24,-1.29,13,46.93
2022-06-03 10:11:47.079,8.6980015039444,-2.06,-11.21,15,90
2022-06-03 10:11:47.194,8.81299786269665,-1.45,-2.7,14,56.81
2022-06-03 10:11:47.309,8.9280042797327,0.06,6.81,14,12.77
2022-06-03 10:11:47.423,9.04199481010437,0.18,1.17,14,55.4
2022-06-03 10:11:47.539,9.15799699723721,-0.82,-7.42,14,90
2022-06-03 10:11:47.653,9.27199758589268,-1.03,-4.71,13,65.52
2022-06-03 10:11:47.763,9.38199497759342,0.03,4.7,11,16.98
2022-06-03 10:11:47.878,9.49700139462948,0.3,2.32,11,33.3
2022-06-03 10:11:47.992,9.61100198328495,-0.45,-4.94,10,69.92
2022-06-03 10:11:48.108,9.72700417041779,-0.56,-2.55,9,41.89
2022-06-03 10:11:48.222,9.84099470078945,-0.29,0.1,8,29.21
2022-06-03 10:11:48.336,9.95499528944492,-0.43,-2.21,7,41.35
2022-06-03 10:11:48.451,10.070001706481,-0.48,-1.96,6,34.32
2022-06-03 10:11:48.566,10.1849980652332,-0.58,-2.57,5,34.83
2022-06-03 10:11:48.681,10.3000044822693,-0.79,-3.86,4,37.61
2022-06-03 10:11:48.795,10.413995012641,-0.8,-3.04,3,28.89
2022-06-03 10:11:48.910,10.529001429677,-0.96,-4.24,3,32.97
2022-06-03 10:11:49.025,10.6439977884293,-1.27,-6.05,3,42.37
2022-06-03 10:11:49.139,10.7579983770847,-1.17,-3.92,2,30.21
2022-06-03 10:11:49.254,10.872994735837,-1.34,-5.69,3,37.48
2022-06-03 10:11:49.369,10.988001152873,-1.53,-6.47,3,46.08
2022-06-03 10:11:49.479,11.0979985445738,-1.29,-3.75,3,21.33
2022-06-03 10:11:49.594,11.212994903326,-1.38,-5.49,3,34.25
2022-06-03 10:11:49.708,11.3269954919815,-1.68,-7.54,3,42.97
2022-06-03 10:11:49.823,11.4420019090176,-1.42,-4.11,4,24.11
2022-06-03 10:11:49.938,11.5569982677698,-1.47,-5.69,4,42.18
2022-06-03 10:11:50.052,11.6709988564253,-1.62,-6.66,3,44.51
2022-06-03 10:11:50.168,11.7870010435581,-1.37,-3.98,4,25.83
2022-06-03 10:11:50.282,11.9010016322136,-1.42,-5.46,5,43.69
2022-06-03 10:11:50.397,12.0159979909658,-1.38,-4.95,5,43.74
2022-06-03 10:11:50.511,12.1299985796213,-1.22,-3.77,5,38.09
2022-06-03 10:11:50.626,12.2449949383736,-1.27,-4.96,5,46.44
2022-06-03 10:11:50.742,12.3609971255064,-1.22,-4.25,5,33.22
2022-06-03 10:11:50.855,12.4740019440651,-1.14,-3.92,5,33.35
2022-06-03 10:11:50.971,12.5900041311979,-0.95,-2.67,5,28.35
2022-06-03 10:11:51.084,12.7029988914728,-0.98,-3.72,6,35.91
2022-06-03 10:11:51.195,12.8140021115541,-1.09,-4.57,5,44.61
2022-06-03 10:11:51.310,12.9289984703064,-0.69,-0.76,5,19.08
2022-06-03 10:11:51.425,13.0439948290586,-0.93,-4.47,5,44.48
2022-06-03 10:11:51.540,13.1590012460947,-1.17,-5.4,5,45.15
2022-06-03 10:11:51.654,13.2730018347502,-0.87,-1.93,5,21.01
2022-06-03 10:11:51.769,13.3879981935024,-1.01,-4.31,5,38.11
2022-06-03 10:11:51.883,13.5019987821579,-1.02,-3.86,5,33.63
2022-06-03 10:11:51.998,13.6169951409101,-1.07,-4.16,5,36.49
2022-06-03 10:11:52.112,13.7309957295656,-0.75,-1.34,5,22.84
2022-06-03 10:11:52.227,13.8460021466017,-1,-4.81,5,44.47
2022-06-03 10:11:52.343,13.9620043337345,-1.23,-5.57,5,44.65
2022-06-03 10:11:52.457,14.0759948641062,-0.85,-1.44,4,23.95
2022-06-03 10:11:52.572,14.1910012811422,-0.98,-4.23,5,38.89
2022-06-03 10:11:52.687,14.3059976398945,-0.93,-3.25,5,37.41
2022-06-03 10:11:52.801,14.41999822855,-1.02,-4.19,6,42.81
2022-06-03 10:11:52.912,14.5310014486313,-0.67,-0.97,6,31.32
2022-06-03 10:11:53.026,14.6450020372868,-0.95,-4.73,5,53.69
2022-06-03 10:11:53.140,14.7590026259422,-1.06,-4.41,5,33.01
2022-06-03 10:11:53.255,14.8739989846945,-1.05,-3.86,5,32.84
2022-06-03 10:11:53.370,14.9889953434467,-0.68,-0.89,5,19.51
2022-06-03 10:11:53.484,15.1029959321022,-1.11,-6.02,5,49.61
2022-06-03 10:11:53.599,15.2180023491383,-1.19,-4.76,5,34.39
2022-06-03 10:11:53.715,15.3340045362711,-1.14,-3.98,5,33.01
2022-06-03 10:11:53.829,15.4479950666428,-0.79,-1.41,5,22.01
2022-06-03 10:11:53.943,15.5619956552982,-1.13,-5.66,5,47.25
2022-06-03 10:11:54.059,15.6779978424311,-1.18,-4.6,6,34.04
2022-06-03 10:11:54.173,15.7919984310865,-1.08,-3.58,5,36.22
2022-06-03 10:11:54.287,15.905999019742,-0.78,-1.58,5,22.09
2022-06-03 10:11:54.402,16.0209953784943,-1.08,-5.28,5,45.14
2022-06-03 10:11:54.517,16.1360017955303,-1.21,-5.07,5,36.9
2022-06-03 10:11:54.627,16.2459991872311,-1.09,-3.47,5,30.1
2022-06-03 10:11:54.743,16.3620013743639,-0.75,-1.28,5,21.99
2022-06-03 10:11:54.857,16.4760019630194,-1.08,-5.42,6,46.16
2022-06-03 10:11:54.971,16.5900025516748,-1.29,-5.71,5,44.9
2022-06-03 10:11:55.086,16.7049989104271,-1.17,-3.84,6,29.97
2022-06-03 10:11:55.201,16.8199952691793,-0.77,-1.04,4,25.5
2022-06-03 10:11:55.316,16.9350016862154,-1.1,-5.54,5,41.01
2022-06-03 10:11:55.431,17.0499980449677,-1.22,-5.02,5,41.01
2022-06-03 10:11:55.545,17.1639986336231,-1.23,-4.61,6,39.23
2022-06-03 10:11:55.659,17.2779992222786,-0.75,-0.68,5,26
2022-06-03 10:11:55.774,17.3929955810308,-1.17,-6.18,6,52.97
2022-06-03 10:11:55.889,17.5080019980669,-1.01,-3.06,5,30.68
2022-06-03 10:11:56.004,17.6229983568192,-1.33,-6.33,5,45.64
2022-06-03 10:11:56.119,17.7379947155714,-0.83,-0.85,5,14.38
2022-06-03 10:11:56.233,17.8519953042269,-0.85,-3.22,5,34
2022-06-03 10:11:56.343,17.9620027542114,-0.99,-4.32,5,37.13
2022-06-03 10:11:56.458,18.0769991129637,-1.32,-6.31,5,46.52
2022-06-03 10:11:56.573,18.1919954717159,-1.21,-3.97,5,30.05
2022-06-03 10:11:56.687,18.3059960603714,-0.8,-1.16,5,19.86
2022-06-03 10:11:56.802,18.4210024774075,-1.18,-6.07,5,48.67
2022-06-03 10:11:56.917,18.5359988361597,-1.08,-3.56,6,28.31
2022-06-03 10:11:57.033,18.6520010232925,-1.45,-6.94,5,54.31
2022-06-03 10:11:57.146,18.7649957835674,-1.1,-2.58,5,20.92
2022-06-03 10:11:57.261,18.8800022006035,-0.73,-1.1,5,21.27
2022-06-03 10:11:57.375,18.994002789259,-1.16,-6.2,5,49.27
2022-06-03 10:11:57.490,19.1089991480112,-1.11,-3.87,5,29.67
2022-06-03 10:11:57.605,19.2239955067635,-1.48,-7.11,5,49.75
2022-06-03 10:11:57.719,19.3379960954189,-1.07,-2.13,6,19.81
2022-06-03 10:11:57.835,19.4539982825518,-0.73,-1.26,5,27.63
2022-06-03 10:11:57.949,19.5679988712072,-1.18,-6.31,5,48.36
2022-06-03 10:11:58.059,19.677996262908,-0.99,-2.85,4,24.47
